This is the latest recevied weather packets stored in our database for station/object KF7ROW. If no packets are shown the sender has not sent any weather packets the latest 10 day(s).
| Time | Temp. | Humidity | Pressure | Rain* | Wind** | Luminosity | Snow |
|---|---|---|---|---|---|---|---|
| 1777845652 | 22.22° C | 58% | 1013.7 hPa | 0 mm | - | 682 W/m² | - |
| 1777845349 | 22.78° C | 57% | 1013.7 hPa | 0 mm | - | 691 W/m² | - |
| 1777845046 | 22.78° C | 58% | 1013.8 hPa | 0 mm | - | 698 W/m² | - |
| 1777844745 | 22.22° C | 59% | 1013.9 hPa | 0 mm | - | 706 W/m² | - |
| 1777844441 | 22.22° C | 60% | 1013.7 hPa | 0 mm | - | 713 W/m² | - |
| 1777844139 | 22.22° C | 61% | 1013.8 hPa | 0 mm | - | 720 W/m² | - |
| 1777843836 | 21.67° C | 65% | 1013.7 hPa | 0 mm | - | 726 W/m² | - |
| 1777843533 | 21.67° C | 65% | 1013.9 hPa | 0 mm | - | 731 W/m² | - |
| 1777843230 | 21.67° C | 63% | 1013.9 hPa | 0 mm | - | 737 W/m² | - |
| 1777842927 | 21.67° C | 64% | 1013.8 hPa | 0 mm | - | 742 W/m² | - |
| 1777842623 | 22.22° C | 63% | 1014.1 hPa | 0 mm | - | 747 W/m² | - |
| 1777842320 | 22.78° C | 60% | 1013.9 hPa | 0 mm | - | 752 W/m² | - |
| 1777842015 | 22.78° C | 62% | 1014 hPa | 0 mm | - | 757 W/m² | - |
| 1777841712 | 22.22° C | 61% | 1013.9 hPa | 0 mm | - | 761 W/m² | - |
| 1777841409 | 22.78° C | 63% | 1014.2 hPa | 0 mm | - | 764 W/m² | - |
| 1777841106 | 21.67° C | 63% | 1014 hPa | 0 mm | - | 769 W/m² | - |
| 1777840803 | 21.67° C | 64% | 1014.2 hPa | 0 mm | - | 772 W/m² | - |
| 1777840500 | 21.67° C | 63% | 1014 hPa | 0 mm | - | 775 W/m² | - |
| 1777840196 | 21.67° C | 65% | 1014.2 hPa | 0 mm | - | 779 W/m² | - |
| 1777839895 | 21.11° C | 67% | 1014.2 hPa | 0 mm | - | 779 W/m² | - |
| 1777839593 | 20.56° C | 67% | 1014.1 hPa | 0 mm | - | 779 W/m² | - |
| 1777839290 | 20.56° C | 70% | 1014.3 hPa | 0 mm | - | 779 W/m² | - |
| 1777838987 | 20.56° C | 70% | 1014.3 hPa | 0 mm | - | 779 W/m² | - |
| 1777838684 | 21.11° C | 67% | 1014.1 hPa | 0 mm | - | 779 W/m² | - |
| 1777838380 | 21.11° C | 67% | 1014.1 hPa | 0 mm | - | 638 W/m² | - |
* Rain latest hour (hover to see other rain measurements)
** Current wind speed in m/s (hover to see current wind gust speed)